Time,TemperatureF,DewpointF,PressureIn,WindDirection,WindDirectionDegrees,WindSpeedMPH,WindSpeedGustMPH,Humidity,HourlyPrecipIn,Conditions,Clouds,dailyrainin,SoftwareType,DateUTC
2013-02-18 00:00:00,39.1,36.7,29.96,WNW,290,0.0,0.0,91,0.00,CLR,,0.00,WeatherDisplay:10.37,2013-02-18 08:00:00,
2013-02-18 00:15:00,38.8,36.4,29.96,WNW,290,0.0,0.0,91,0.00,CLR,,0.00,WeatherDisplay:10.37,2013-02-18 08:15:00,
2013-02-18 00:30:00,38.5,36.1,29.96,WNW,290,0.0,0.0,91,0.00,CLR,,0.00,WeatherDisplay:10.37,2013-02-18 08:30:00,
2013-02-18 00:45:00,38.3,35.9,29.96,WNW,290,0.0,0.0,91,0.00,CLR,,0.00,WeatherDisplay:10.37,2013-02-18 08:45:00,
2013-02-18 01:00:00,38.0,35.6,29.96,WNW,290,0.0,0.0,91,0.00,CLR,,0.00,WeatherDisplay:10.37,2013-02-18 09:00:00,
2013-02-18 01:15:00,37.8,35.4,29.96,WNW,290,0.0,0.0,91,0.00,CLR,,0.00,WeatherDisplay:10.37,2013-02-18 09:15:00,
2013-02-18 01:30:00,37.6,35.2,29.96,WNW,290,0.0,0.0,91,0.00,CLR,,0.00,WeatherDisplay:10.37,2013-02-18 09:30:00,
2013-02-18 01:45:00,37.3,34.9,29.96,WNW,290,0.0,0.0,91,0.00,CLR,,0.00,WeatherDisplay:10.37,2013-02-18 09:45:00,
2013-02-18 02:00:00,37.2,34.8,29.95,WNW,290,0.0,0.0,91,0.00,CLR,,0.00,WeatherDisplay:10.37,2013-02-18 10:00:00,
2013-02-18 02:15:00,37.0,34.9,29.95,WNW,290,0.0,0.0,92,0.00,CLR,,0.00,WeatherDisplay:10.37,2013-02-18 10:15:00,
2013-02-18 02:30:00,36.9,34.8,29.95,WNW,290,0.0,0.0,92,0.00,CLR,,0.00,WeatherDisplay:10.37,2013-02-18 10:30:00,
2013-02-18 02:45:00,36.6,34.5,29.95,WNW,290,0.0,0.0,92,0.00,CLR,,0.00,WeatherDisplay:10.37,2013-02-18 10:45:00,
2013-02-18 03:00:00,36.5,34.4,29.95,WNW,290,0.0,0.0,92,0.00,CLR,,0.00,WeatherDisplay:10.37,2013-02-18 11:00:00,
2013-02-18 03:15:00,36.3,34.2,29.95,WNW,290,0.0,0.0,92,0.00,CLR,,0.00,WeatherDisplay:10.37,2013-02-18 11:15:00,
2013-02-18 03:30:00,36.2,34.1,29.94,WNW,290,0.0,0.0,92,0.00,CLR,,0.00,WeatherDisplay:10.37,2013-02-18 11:30:00,
2013-02-18 03:45:00,36.2,34.1,29.94,WNW,290,0.0,0.0,92,0.00,CLR,,0.00,WeatherDisplay:10.37,2013-02-18 11:45:00,
2013-02-18 04:00:00,36.4,34.3,29.94,WNW,290,0.0,0.0,92,0.00,CLR,,0.00,WeatherDisplay:10.37,2013-02-18 12:00:00,
2013-02-18 04:15:00,36.9,34.8,29.94,WNW,290,0.0,0.0,92,0.00,CLR,,0.00,WeatherDisplay:10.37,2013-02-18 12:15:00,
2013-02-18 04:30:00,37.3,35.2,29.94,WNW,290,0.0,0.0,92,0.00,CLR,,0.00,WeatherDisplay:10.37,2013-02-18 12:30:00,
2013-02-18 04:45:00,37.8,35.7,29.94,WNW,290,0.0,0.0,92,0.00,CLR,,0.00,WeatherDisplay:10.37,2013-02-18 12:45:00,
2013-02-18 05:00:00,38.2,36.4,29.94,WNW,290,0.0,0.0,93,0.00,CLR,,0.00,WeatherDisplay:10.37,2013-02-18 13:00:00,
2013-02-18 05:15:00,38.5,36.7,29.94,WNW,290,0.0,0.0,93,0.00,CLR,,0.00,WeatherDisplay:10.37,2013-02-18 13:15:00,
2013-02-18 05:30:00,38.9,37.0,29.95,WNW,290,0.0,0.0,93,0.00,CLR,,0.00,WeatherDisplay:10.37,2013-02-18 13:30:00,
2013-02-18 05:45:00,39.5,37.6,29.95,WNW,290,0.0,0.0,93,0.00,CLR,,0.00,WeatherDisplay:10.37,2013-02-18 13:45:00,
2013-02-18 06:00:00,39.9,38.0,29.94,WNW,290,0.0,0.0,93,0.00,CLR,,0.00,WeatherDisplay:10.37,2013-02-18 14:00:00,
2013-02-18 06:15:00,40.3,38.4,29.94,WNW,290,0.0,0.0,93,0.00,CLR,,0.00,WeatherDisplay:10.37,2013-02-18 14:15:00,
2013-02-18 06:30:00,40.5,38.7,29.94,WNW,290,0.0,0.0,93,0.00,CLR,,0.00,WeatherDisplay:10.37,2013-02-18 14:30:00,
2013-02-18 06:45:00,40.2,38.3,29.95,WNW,290,0.0,0.0,93,0.00,CLR,,0.00,WeatherDisplay:10.37,2013-02-18 14:45:00,
2013-02-18 07:00:00,39.9,38.0,29.95,WNW,290,0.0,0.0,93,0.00,CLR,,0.00,WeatherDisplay:10.37,2013-02-18 15:00:00,
2013-02-18 07:15:00,39.5,37.6,29.95,WNW,290,0.0,0.0,93,0.00,CLR,,0.00,WeatherDisplay:10.37,2013-02-18 15:15:00,
2013-02-18 07:30:00,39.1,37.0,29.96,WNW,290,0.0,0.0,92,0.00,CLR,,0.00,WeatherDisplay:10.37,2013-02-18 15:30:00,
2013-02-18 07:45:00,39.1,37.2,29.97,WNW,290,0.0,0.0,93,0.00,CLR,,0.00,WeatherDisplay:10.37,2013-02-18 15:45:00,
2013-02-18 08:00:00,39.2,37.3,29.97,WNW,290,0.0,0.0,93,0.00,CLR,,0.00,WeatherDisplay:10.37,2013-02-18 16:00:00,
2013-02-18 08:15:00,39.6,37.7,29.98,WNW,290,0.0,0.0,93,0.00,CLR,,0.00,WeatherDisplay:10.37,2013-02-18 16:15:00,
2013-02-18 08:30:00,40.3,38.4,29.98,WNW,290,0.0,0.0,93,0.00,CLR,,0.00,WeatherDisplay:10.37,2013-02-18 16:30:00,
2013-02-18 08:45:00,41.1,39.2,29.98,WNW,290,0.0,0.0,93,0.00,CLR,,0.00,WeatherDisplay:10.37,2013-02-18 16:45:00,
2013-02-18 09:00:00,41.6,39.7,29.98,WNW,290,0.0,0.0,93,0.00,CLR,,0.00,WeatherDisplay:10.37,2013-02-18 17:00:00,
2013-02-18 09:15:00,42.3,40.4,29.99,WNW,290,0.0,0.0,93,0.00,CLR,,0.00,WeatherDisplay:10.37,2013-02-18 17:15:00,
2013-02-18 09:30:00,42.8,40.9,29.99,WNW,290,0.0,0.0,93,0.00,CLR,,0.00,WeatherDisplay:10.37,2013-02-18 17:30:00,
2013-02-18 09:45:00,43.2,41.3,29.99,WNW,290,0.0,0.0,93,0.00,CLR,,0.00,WeatherDisplay:10.37,2013-02-18 17:45:00,
2013-02-18 10:00:00,43.8,41.9,29.99,WNW,290,0.0,0.0,93,0.00,CLR,,0.00,WeatherDisplay:10.37,2013-02-18 18:00:00,
2013-02-18 10:15:00,44.2,42.3,29.99,WNW,290,0.0,0.0,93,0.00,CLR,,0.00,WeatherDisplay:10.37,2013-02-18 18:15:00,
2013-02-18 10:30:00,44.6,42.7,29.99,SSW,196,0.0,3.0,93,0.00,CLR,,0.00,WeatherDisplay:10.37,2013-02-18 18:30:00,
2013-02-18 11:00:00,45.8,43.3,29.99,SSE,164,0.0,0.0,91,0.00,CLR,,0.00,WeatherDisplay:10.37,2013-02-18 19:00:00,
2013-02-18 11:15:00,46.5,43.4,29.99,SSE,164,0.0,0.0,89,0.00,CLR,,0.00,WeatherDisplay:10.37,2013-02-18 19:15:00,
2013-02-18 11:30:00,47.1,42.8,29.98,SSE,164,0.0,0.0,85,0.00,CLR,,0.00,WeatherDisplay:10.37,2013-02-18 19:30:00,
2013-02-18 11:45:00,47.7,42.2,29.98,SSE,164,0.0,1.0,81,0.00,CLR,,0.00,WeatherDisplay:10.37,2013-02-18 19:45:00,
2013-02-18 12:00:00,48.0,40.8,29.98,SSE,155,0.0,3.0,76,0.00,CLR,,0.00,WeatherDisplay:10.37,2013-02-18 20:00:00,
2013-02-18 12:15:00,48.1,40.9,29.97,SSE,154,0.0,1.0,76,0.00,CLR,,0.00,WeatherDisplay:10.37,2013-02-18 20:15:00,
2013-02-18 12:30:00,48.5,40.6,29.96,SSE,159,1.0,3.0,74,0.00,CLR,,0.00,WeatherDisplay:10.37,2013-02-18 20:30:00,
2013-02-18 12:45:00,48.8,39.8,29.96,South,179,0.0,0.0,71,0.00,CLR,,0.00,WeatherDisplay:10.37,2013-02-18 20:45:00,
2013-02-18 13:00:00,48.9,39.9,29.96,South,179,0.0,1.0,71,0.00,CLR,,0.00,WeatherDisplay:10.37,2013-02-18 21:00:00,
2013-02-18 13:15:00,48.9,38.8,29.95,South,179,0.0,3.0,68,0.00,CLR,,0.00,WeatherDisplay:10.37,2013-02-18 21:15:00,
2013-02-18 13:30:00,49.1,39.7,29.94,South,177,0.0,1.0,70,0.00,CLR,,0.00,WeatherDisplay:10.37,2013-02-18 21:30:00,
2013-02-18 13:45:00,49.4,39.3,29.94,West,265,0.0,2.0,68,0.00,CLR,,0.00,WeatherDisplay:10.37,2013-02-18 21:45:00,
2013-02-18 14:00:00,49.2,39.5,29.94,West,264,0.0,1.0,69,0.00,CLR,,0.00,WeatherDisplay:10.37,2013-02-18 22:00:00,
2013-02-18 14:15:00,49.2,39.5,29.93,SSW,209,1.0,3.0,69,0.00,CLR,,0.00,WeatherDisplay:10.37,2013-02-18 22:15:00,
2013-02-18 14:30:00,49.1,39.0,29.94,WNW,288,0.0,2.0,68,0.00,CLR,,0.00,WeatherDisplay:10.37,2013-02-18 22:30:00,
2013-02-18 14:45:00,48.9,38.4,29.94,WNW,288,0.0,1.0,67,0.00,CLR,,0.00,WeatherDisplay:10.37,2013-02-18 22:45:00,
2013-02-18 15:00:00,48.8,39.1,29.94,SSW,209,0.0,6.0,69,0.00,CLR,,0.00,WeatherDisplay:10.37,2013-02-18 23:00:00,
2013-02-18 15:15:00,48.0,38.3,29.94,SSE,156,0.0,6.0,69,0.00,CLR,,0.00,WeatherDisplay:10.37,2013-02-18 23:15:00,
2013-02-18 15:30:00,47.9,37.8,29.93,SSE,165,0.0,3.0,68,0.00,CLR,,0.00,WeatherDisplay:10.37,2013-02-18 23:30:00,
2013-02-18 15:45:00,47.9,37.8,29.94,South,171,0.0,2.0,68,0.00,CLR,,0.00,WeatherDisplay:10.37,2013-02-18 23:45:00,
2013-02-18 16:00:00,47.7,37.7,29.94,SSE,159,1.0,6.0,68,0.00,CLR,,0.00,WeatherDisplay:10.37,2013-02-19 00:00:00,
2013-02-18 16:15:00,47.3,38.0,29.94,NW,319,0.0,3.0,70,0.00,CLR,,0.00,WeatherDisplay:10.37,2013-02-19 00:15:00,
2013-02-18 16:30:00,46.8,37.5,29.94,North,354,0.0,1.0,70,0.00,CLR,,0.00,WeatherDisplay:10.37,2013-02-19 00:30:00,
2013-02-18 16:45:00,46.8,37.2,29.94,North,354,0.0,0.0,69,0.00,CLR,,0.00,WeatherDisplay:10.37,2013-02-19 00:45:00,
2013-02-18 17:00:00,46.7,36.3,29.94,North,354,0.0,0.0,67,0.00,CLR,,0.00,WeatherDisplay:10.37,2013-02-19 01:00:00,
2013-02-18 17:15:00,46.7,36.7,29.94,North,354,0.0,0.0,68,0.00,CLR,,0.00,WeatherDisplay:10.37,2013-02-19 01:15:00,
2013-02-18 17:30:00,46.5,37.2,29.94,North,354,0.0,0.0,70,0.00,CLR,,0.00,WeatherDisplay:10.37,2013-02-19 01:30:00,
2013-02-18 17:45:00,46.4,37.9,29.94,North,354,0.0,0.0,72,0.00,CLR,,0.00,WeatherDisplay:10.37,2013-02-19 01:45:00,
2013-02-18 18:00:00,46.0,38.2,29.94,North,354,0.0,0.0,74,0.00,CLR,,0.00,WeatherDisplay:10.37,2013-02-19 02:00:00,
2013-02-18 18:15:00,45.6,38.8,29.94,North,354,0.0,0.0,77,0.00,CLR,,0.00,WeatherDisplay:10.37,2013-02-19 02:15:00,
2013-02-18 18:30:00,45.4,38.9,29.94,North,354,0.0,0.0,78,0.00,CLR,,0.00,WeatherDisplay:10.37,2013-02-19 02:30:00,
2013-02-18 18:45:00,45.1,39.3,29.94,North,354,0.0,0.0,80,0.00,CLR,,0.00,WeatherDisplay:10.37,2013-02-19 02:45:00,
2013-02-18 19:00:00,44.9,39.4,29.94,North,354,0.0,0.0,81,0.00,CLR,,0.00,WeatherDisplay:10.37,2013-02-19 03:00:00,
2013-02-18 19:15:00,44.6,39.1,29.94,North,354,0.0,0.0,81,0.00,CLR,,0.00,WeatherDisplay:10.37,2013-02-19 03:15:00,
2013-02-18 19:30:00,44.5,39.3,29.94,North,354,0.0,0.0,82,0.00,CLR,,0.00,WeatherDisplay:10.37,2013-02-19 03:30:00,
2013-02-18 19:45:00,44.3,39.5,29.94,North,354,0.0,0.0,83,0.00,CLR,,0.00,WeatherDisplay:10.37,2013-02-19 03:45:00,
2013-02-18 20:00:00,44.2,39.4,29.94,North,354,0.0,0.0,83,0.00,CLR,,0.00,WeatherDisplay:10.37,2013-02-19 04:00:00,
2013-02-18 20:15:00,44.1,39.6,29.94,North,354,0.0,0.0,84,0.00,CLR,,0.00,WeatherDisplay:10.37,2013-02-19 04:15:00,
2013-02-18 20:30:00,43.9,39.4,29.94,North,354,0.0,0.0,84,0.00,CLR,,0.00,WeatherDisplay:10.37,2013-02-19 04:30:00,
2013-02-18 20:45:00,43.8,39.6,29.94,North,354,0.0,0.0,85,0.00,CLR,,0.00,WeatherDisplay:10.37,2013-02-19 04:45:00,
2013-02-18 21:00:00,43.8,39.6,29.94,North,354,0.0,0.0,85,0.00,CLR,,0.00,WeatherDisplay:10.37,2013-02-19 05:00:00,
2013-02-18 21:15:00,43.6,39.7,29.94,North,354,0.0,0.0,86,0.00,CLR,,0.00,WeatherDisplay:10.37,2013-02-19 05:15:00,
2013-02-18 21:30:00,43.6,39.7,29.94,North,354,0.0,0.0,86,0.00,CLR,,0.00,WeatherDisplay:10.37,2013-02-19 05:30:00,
2013-02-18 21:45:00,43.5,39.6,29.94,North,354,0.0,0.0,86,0.00,CLR,,0.00,WeatherDisplay:10.37,2013-02-19 05:45:00,
2013-02-18 22:00:00,43.5,39.6,29.94,North,354,0.0,0.0,86,0.00,CLR,,0.00,WeatherDisplay:10.37,2013-02-19 06:00:00,
2013-02-18 22:15:00,43.5,39.6,29.94,North,354,0.0,0.0,86,0.00,CLR,,0.00,WeatherDisplay:10.37,2013-02-19 06:15:00,
2013-02-18 22:30:00,43.3,39.4,29.94,North,357,0.0,1.0,86,0.00,CLR,,0.00,WeatherDisplay:10.37,2013-02-19 06:30:00,
2013-02-18 22:45:00,43.5,39.9,29.94,North,358,0.0,0.0,87,0.00,CLR,,0.00,WeatherDisplay:10.37,2013-02-19 06:45:00,
2013-02-18 23:00:00,43.3,40.0,29.93,North,358,0.0,0.0,88,0.00,CLR,,0.00,WeatherDisplay:10.37,2013-02-19 07:00:00,
2013-02-18 23:15:00,43.3,40.0,29.92,North,358,0.0,0.0,88,0.00,CLR,,0.00,WeatherDisplay:10.37,2013-02-19 07:15:00,
2013-02-18 23:30:00,43.1,39.8,29.92,North,358,0.0,0.0,88,0.00,CLR,,0.00,WeatherDisplay:10.37,2013-02-19 07:30:00,
2013-02-18 23:45:00,42.6,39.3,29.92,North,358,0.0,0.0,88,0.00,CLR,,0.00,WeatherDisplay:10.37,2013-02-19 07:45:00,